Location: NJAA Observatory
(40.6819°N, 74.8979°W)
Time: 21:50:43
(UTC-04:00)

Iridium 4 - Visible Passes

Search period start: 26 July 2016 00:00
Search period end: 05 August 2016 00:00
Orbit: 773 x 776 km, 86.4° (Epoch: 26 July)

Date Brightness Start Highest point End Pass type
(mag) Time Alt. Az. Time Alt. Az. Time Alt. Az.
26 Jul 5.5 22:25:12 10° N 22:30:25 70° E 22:32:11 41° SSE visible
27 Jul 8.0 00:08:05 10° NW 00:10:22 13° WNW 00:12:36 10° WSW visible
27 Jul 6.2 21:51:07 10° NNE 21:55:55 37° E 21:58:02 26° SE visible
27 Jul 7.3 23:32:12 10° NNW 23:36:20 24° W 23:38:27 19° WSW visible
28 Jul 7.0 21:17:29 10° NNE 21:21:17 20° ENE 21:23:54 14° ESE visible
28 Jul 6.4 22:57:14 10° NNW 23:02:10 45° W 23:04:19 29° SW visible
29 Jul 7.5 20:45:29 10° ENE 20:46:31 11° ENE 20:47:32 10° E visible
29 Jul 5.5 22:22:39 10° N 22:27:53 86° W 22:30:11 34° S visible
30 Jul 5.8 21:48:23 10° N 21:53:28 50° E 21:56:05 27° SSE visible
30 Jul 7.8 23:30:13 10° NW 23:33:39 18° W 23:36:30 12° WSW visible
31 Jul 6.6 21:14:29 10° NNE 21:18:54 27° E 21:21:59 16° SE visible
31 Jul 6.9 22:54:56 10° NNW 22:59:33 33° W 23:02:24 19° SW visible
01 Aug 7.3 20:41:18 10° NE 20:44:11 15° ENE 20:47:04 10° ESE visible
01 Aug 5.9 22:20:10 10° N 22:25:19 63° W 22:28:20 25° SSW visible
02 Aug 5.5 21:45:45 10° N 21:50:57 70° E 21:54:17 22° SSE visible
02 Aug 8.1 23:28:35 10° NW 23:30:55 13° WNW 23:33:16 10° WSW visible
03 Aug 6.2 21:11:39 10° NNE 21:16:28 37° E 21:20:14 15° SE visible
03 Aug 7.5 22:52:44 10° NNW 22:56:53 25° W 23:00:39 12° SW visible
04 Aug 6.9 20:38:02 10° NNE 20:41:50 20° ENE 20:45:36 10° ESE visible
04 Aug 6.4 22:17:45 10° NNW 22:22:43 45° W 22:26:39 16° SSW visible
